[Iaude] MPEC F140: 2019 FG1 [a=2.34,e=0.53,i=10.5,H=23.0]

mpec at mpcdb1.cfa.harvard.edu mpec at mpcdb1.cfa.harvard.edu
Sun Mar 31 18:09:17 EDT 2019


M.P.E.C. 2019-F140                               Issued 2019 Mar. 31, 22:05 UT
 
     The Minor Planet Electronic Circulars contain information on unusual
         minor planets and routine data on comets.  They are published
    on behalf of Division F of the International Astronomical Union by the
          Minor Planet Center, Smithsonian Astrophysical Observatory,
                          Cambridge, MA 02138, U.S.A.

             Prepared using the Tamkin Foundation Computer Network

                              MPC at CFA.HARVARD.EDU
            URL https://www.minorplanetcenter.net/    ISSN 1523-6714


                                   2019 FG1
 
Observations:
     K19F01G  C2019 03 28.44869 13 19 58.355+39 30 17.97         20.5 iUEF140F51
     K19F01G  C2019 03 28.45890 13 19 59.559+39 29 55.37         20.8 iUEF140F51
     K19F01G* C2019 03 28.46928 13 19 58.10 +39 29 14.9          21.3 GVEF140G96
     K19F01G  C2019 03 28.46946 13 20 00.819+39 29 32.10         20.8 iUEF140F51
     K19F01G  C2019 03 28.47504 13 19 58.77 +39 29 01.0          20.5 GVEF140G96
     K19F01G  C2019 03 28.47987 13 20 02.067+39 29 08.50         20.9 iUEF140F51
     K19F01G  C2019 03 28.48080 13 19 59.53 +39 28 48.2          21.2 GVEF140G96
     K19F01G  C2019 03 28.48656 13 20 00.32 +39 28 34.2          21.1 GVEF140G96
     K19F01G  C2019 03 28.51012 13 20 03.38 +39 27 38.7          21.3 GVEF140G96
     K19F01G  C2019 03 28.51147 13 20 03.55 +39 27 35.0          20.8 GVEF140G96
     K19F01G  C2019 03 28.51282 13 20 03.71 +39 27 31.3          20.6 GVEF140G96
     K19F01G  C2019 03 28.51417 13 20 03.89 +39 27 29.3          21.4 GVEF140G96
     K19F01G KC2019 03 28.94935513 21 11.07 +39 11 03.0          20.7 GVEF140L01
     K19F01G KC2019 03 28.95091513 21 11.27 +39 10 59.5          20.7 GVEF140L01
     K19F01G KC2019 03 28.95559313 21 11.87 +39 10 48.8          20.7 GVEF140L01
     K19F01G KC2019 03 28.96027113 21 12.46 +39 10 38.2          20.7 GVEF140L01
     K19F01G KC2019 03 28.96222013 21 12.72 +39 10 33.7          20.8 GVEF140L01
     K19F01G  C2019 03 29.22553 13 21 52.77 +39 00 24.6          20.4 GVEF140I52
     K19F01G  C2019 03 29.22720 13 21 53.03 +39 00 20.7          20.9 GVEF140I52
     K19F01G  C2019 03 29.22886 13 21 53.20 +39 00 16.1          20.9 GVEF140I52
     K19F01G  C2019 03 29.23053 13 21 53.40 +39 00 13.0          20.7 GVEF140I52
     K19F01G KC2019 03 29.35166 13 22 07.87 +38 55 34.7                oEF140711
     K19F01G KC2019 03 29.35521 13 22 08.30 +38 55 26.3                oEF140711
     K19F01G KC2019 03 29.35864 13 22 08.70 +38 55 17.9                oEF140711
     K19F01G  C2019 03 30.14916 13 24 02.62 +38 22 29.9          20.1 VVEF140033
     K19F01G  C2019 03 30.15272 13 24 03.14 +38 22 20.7          20.3 VVEF140033
     K19F01G  C2019 03 30.15630 13 24 03.61 +38 22 11.8          20.0 VVEF140033
     K19F01G  C2019 03 30.24987 13 24 21.74 +38 18 34.0          21.4 GVEF140I52
     K19F01G  C2019 03 30.25261 13 24 22.14 +38 18 27.2                VEF140I52
     K19F01G  C2019 03 30.25511 13 24 22.42 +38 18 20.5          20.0 GVEF140I52
     K19F01G KC2019 03 30.30933 13 24 28.80 +38 16 07.9                oEF140711
     K19F01G KC2019 03 30.31313 13 24 29.22 +38 15 59.6                oEF140711
     K19F01G KC2019 03 30.31692 13 24 29.70 +38 15 49.2                oEF140711
     K19F01G KC2019 03 30.32064 13 24 30.15 +38 15 39.8                oEF140711
     K19F01G  C2019 03 30.84759 13 25 49.81 +37 52 12.7          20.3 VVEF140033
     K19F01G  C2019 03 30.85117 13 25 50.31 +37 52 03.5          19.9 VVEF140033
     K19F01G  C2019 03 30.85473 13 25 50.80 +37 51 54.3          20.0 VVEF140033
     K19F01G  C2019 03 30.85830 13 25 51.29 +37 51 45.2          20.1 VVEF140033
     K19F01G  C2019 03 30.86188 13 25 51.77 +37 51 36.0          20.0 VVEF140033
     K19F01G  C2019 03 30.93685 13 26 01.83 +37 48 20.3          20.8 VVEF140033
     K19F01G  C2019 03 30.94042 13 26 02.32 +37 48 11.0          21.6 VVEF140033
     K19F01G KC2019 03 31.06666613 26 19.13 +37 42 37.5          19.9 VqEF140I93
     K19F01G KC2019 03 31.07114813 26 19.69 +37 42 26.0          20.4 VqEF140I93
     K19F01G KC2019 03 31.07674413 26 20.48 +37 42 10.5          20.2 VqEF140I93
     K19F01G  C2019 03 31.23431 13 26 46.92 +37 35 05.7          20.9 GVEF140I52
     K19F01G  C2019 03 31.23555 13 26 47.06 +37 35 04.0          20.2 GVEF140I52
     K19F01G  C2019 03 31.23680 13 26 47.24 +37 34 59.2          20.4 GVEF140I52
     K19F01G  C2019 03 31.23805 13 26 47.39 +37 34 56.6                VEF140I52
 
Observer details:
033 Karl Schwarzschild Observatory, Tautenburg.  Observers U. Laux,
    B. Stecklum.  Measurer B. Stecklum.  1.34-m f/3 Schmidt + CCD.
711 McDonald Observatory, Fort Davis.  Observer J. G. Ries.  2.1-m reflector
    + CCD + focal reducer.
F51 Pan-STARRS 1, Haleakala.  Observers J. Bulger, T. Lowe, A. Schultz,
    M. Willman.  Measurers K. Chambers, S. Chastel, T. de Boer, L. Denneau,
    J. Fairlamb, H. Flewelling, M. Huber, C.-C. Lin, E. Magnier,
    Y. Ramanjooloo, R. Wainscoat, R. Weryk.  1.8-m Ritchey-Chretien + CCD.
G96 Mt. Lemmon Survey.  Observer B. M. Africano.  Measurers B. M. Africano,
    E. J. Christensen, G. A. Farneth, D. C. Fuls, A. R. Gibbs, A. D. Grauer,
    H. Groeller, R. A. Kowalski, S. M. Larson, G. J. Leonard, T. A. Pruyne,
    R. L. Seaman, F. C. Shelly.  1.5-m reflector + 10K CCD.
I52 Steward Observatory, Mt. Lemmon Station.  Observer H. Groeller.
    Measurers B. M. Africano, E. J. Christensen, G. A. Farneth, D. C. Fuls,
    A. R. Gibbs, A. D. Grauer, H. Groeller, R. A. Kowalski, S. M. Larson,
    G. J. Leonard, T. A. Pruyne, R. L. Seaman, F. C. Shelly.  1.0-m reflector
    + CCD.
I93 St Pardon de Conques.  Observer F. Losse.  0.40-m f/3.7 reflector + CCD.
L01 Visnjan Observatory, Tican.  Observers K. Korlevic, J. Mates.  Measurer
    K. Korlevic.  1.0-m f/2.9 reflector + CCD.
 
Orbital elements:
2019 FG1                                                 Earth MOID = 0.1128 AU
Epoch 2019 Apr. 27.0 TT = JDT 2458600.5                 MPC
M   3.44645              (2000.0)            P               Q
n   0.27580753     Peri.  162.33764     -0.91421066     +0.38721526
a   2.3373943      Node    41.09403     -0.39028254     -0.76192341
e   0.5252638      Incl.   10.47602     -0.10907980     -0.51916959
P   3.57           H   23.0           G   0.15           U   7
Residuals in seconds of arc
190328 F51  0.1-  0.2+    190328 L01  0.1+  0.1-    190330 711  0.1+  0.1+
190328 F51  0.1-  0.0     190329 I52  0.2+  0.5+    190330 711  0.1+  0.2+
190328 G96  0.2+  0.1+    190329 I52  0.7+  0.4+    190330 033  0.1-  0.1+
190328 F51  0.0   0.0     190329 I52  0.2+  0.5-    190330 033  0.0   0.1+
190328 G96  0.5-  0.3-    190329 I52  0.1+  0.1+    190330 033  0.0   0.0
190328 F51  0.2+  0.4-    190329 711  0.5-  0.3+    190330 033  0.0   0.0
190328 G96  0.2-  0.4+    190329 711  0.5-  0.5+    190330 033  0.1-  0.0
190328 G96  0.3+  0.0     190329 711  0.7-  0.3+    190330 033  0.7+  0.9-
190328 G96  0.2+  0.2+    190330 033  0.1+  0.2-    190330 033  1.0+  0.8-
190328 G96  0.1+  0.3-    190330 033  0.5+  0.0     190331 I93  0.1-  0.8-
190328 G96  0.2-  0.8-    190330 033  0.3+  0.6+    190331 I93  0.2-  0.0
190328 G96  0.1-  0.4+    190330 I52  0.4-  0.0     190331 I93  0.7+  0.1-
190328 L01  0.2-  0.0     190330 I52  0.2+  0.1-    190331 I52  0.4-  0.2-
190328 L01  0.2-  0.0     190330 I52  0.2-  0.6-    190331 I52  0.6-  1.3+
190328 L01  0.0   0.1-    190330 711  0.5+  0.5-    190331 I52  0.4-  0.2-
190328 L01  0.0   0.1-    190330 711  0.1-  0.9+    190331 I52  0.6-  0.5+

Ephemeris:
2019 FG1                 a,e,i = 2.34, 0.53, 10                  q = 1.1096
Date    TT    R. A. (2000) Decl.     Delta      r     Elong.  Phase     V
2019 03 01    12 22 31.4 +43 58 00   0.2928  1.2245   138.2    32.6    22.1
...
2019 03 16    12 51 52.5 +44 01 15   0.2218  1.1625   135.2    37.1    21.6
...
2019 03 24    13 09 29.3 +41 47 07   0.1888  1.1382   135.1    38.2    21.2
...
2019 03 30    13 23 42.9 +38 29 07   0.1661  1.1246   136.4    37.8    20.9
2019 03 31    13 26 09.8 +37 45 47   0.1626  1.1228   136.8    37.5    20.8
2019 04 01    13 28 37.8 +36 59 08   0.1591  1.1210   137.2    37.3    20.8
...
2019 04 07    13 43 49.3 +31 00 02   0.1399  1.1132   141.1    34.4    20.4
...
2019 04 15    14 04 48.9 +18 54 36   0.1208  1.1097   150.4    26.5    19.8
...
2019 04 30    14 43 05.7 -12 47 01   0.1178  1.1246   175.7     3.9    19.0

A. U. Tomatic                (C) Copyright 2019 MPC           M.P.E.C. 2019-F140



More information about the Iaude mailing list